�������l�o���
Date,Time,MP-1(��Sv/h),MP-2(��Sv/h),MP-3(��Sv/h),MP-4(��Sv/h),MP-5(��Sv/h),MP-6(��Sv/h),MP-7(��Sv/h),MP-8(��Sv/h),����,����(m/s),���J
2018/08/04,00:00,0.889,1.290,0.909,1.617,1.186,0.480,0.849,0.800,��,1.1,��
2018/08/04,00:10,0.890,1.291,0.909,1.620,1.185,0.481,0.849,0.799,�k�k��,1.2,��
2018/08/04,00:20,0.888,1.291,0.908,1.620,1.183,0.480,0.849,0.800,�k,1.4,��
2018/08/04,00:30,0.890,1.290,0.910,1.620,1.184,0.482,0.848,0.801,�k�k��,1.9,��
2018/08/04,00:40,0.890,1.291,0.911,1.618,1.183,0.481,0.849,0.800,�k,0.9,��
2018/08/04,00:50,0.887,1.291,0.909,1.620,1.187,0.482,0.848,0.799,-,CALM,��
2018/08/04,01:00,0.888,1.289,0.909,1.618,1.183,0.482,0.849,0.799,-,CALM,��
2018/08/04,01:10,0.889,1.289,0.909,1.619,1.186,0.481,0.847,0.801,��,0.6,��
2018/08/04,01:20,0.888,1.290,0.909,1.619,1.185,0.483,0.850,0.800,-,CALM,��
2018/08/04,01:30,0.888,1.291,0.908,1.618,1.185,0.482,0.848,0.800,�k��,1.9,��
2018/08/04,01:40,0.888,1.291,0.910,1.618,1.184,0.483,0.848,0.801,�k��,3.1,��
2018/08/04,01:50,0.887,1.290,0.908,1.619,1.184,0.483,0.849,0.799,�k��,3.0,��
2018/08/04,02:00,0.888,1.290,0.909,1.617,1.185,0.482,0.848,0.801,�k��,2.0,��
2018/08/04,02:10,0.885,1.293,0.911,1.618,1.185,0.481,0.851,0.801,�k��,2.2,��
2018/08/04,02:20,0.889,1.290,0.910,1.618,1.186,0.483,0.849,0.801,�k��,2.6,��
2018/08/04,02:30,0.887,1.291,0.909,1.618,1.186,0.482,0.849,0.800,�k�k��,2.3,��
2018/08/04,02:40,0.888,1.291,0.908,1.619,1.184,0.481,0.850,0.800,�k��,2.6,��
2018/08/04,02:50,0.886,1.290,0.910,1.621,1.186,0.482,0.848,0.800,�k��,2.3,��
2018/08/04,03:00,0.887,1.289,0.908,1.618,1.186,0.482,0.849,0.801,�k��,2.9,��
2018/08/04,03:10,0.887,1.289,0.908,1.617,1.186,0.482,0.847,0.800,�k��,2.6,��
2018/08/04,03:20,0.888,1.290,0.909,1.620,1.183,0.481,0.846,0.800,�k��,2.9,��
2018/08/04,03:30,0.889,1.291,0.910,1.617,1.182,0.482,0.848,0.800,�k��,4.0,��
2018/08/04,03:40,0.887,1.292,0.909,1.620,1.184,0.482,0.848,0.798,�k��,3.9,��
2018/08/04,03:50,0.887,1.290,0.909,1.621,1.184,0.479,0.850,0.801,�k��,3.5,��
2018/08/04,04:00,0.886,1.291,0.909,1.618,1.184,0.480,0.849,0.800,�k��,3.0,��
2018/08/04,04:10,0.889,1.290,0.908,1.620,1.184,0.481,0.849,0.800,���k��,3.5,��
2018/08/04,04:20,0.887,1.290,0.908,1.617,1.184,0.481,0.847,0.800,�k��,3.6,��
2018/08/04,04:30,0.886,1.290,0.908,1.621,1.183,0.483,0.848,0.799,���k��,3.1,��
2018/08/04,04:40,0.889,1.292,0.907,1.616,1.182,0.483,0.847,0.800,���k��,2.3,��
2018/08/04,04:50,0.888,1.291,0.908,1.619,1.183,0.482,0.847,0.801,���k��,2.0,��
2018/08/04,05:00,0.886,1.291,0.909,1.622,1.185,0.481,0.849,0.798,��,2.2,��
2018/08/04,05:10,0.888,1.292,0.909,1.620,1.183,0.481,0.848,0.800,���k��,2.3,��
2018/08/04,05:20,0.887,1.290,0.907,1.619,1.184,0.482,0.848,0.801,���k��,2.0,��
2018/08/04,05:30,0.887,1.288,0.907,1.618,1.184,0.482,0.850,0.799,��,1.2,��
2018/08/04,05:40,0.887,1.292,0.908,1.618,1.183,0.481,0.848,0.800,���k��,1.2,��
2018/08/04,05:50,0.887,1.290,0.908,1.618,1.183,0.480,0.850,0.799,�k��,1.2,��
2018/08/04,06:00,0.887,1.289,0.909,1.620,1.184,0.483,0.847,0.801,���k��,1.5,��
2018/08/04,06:10,0.888,1.292,0.909,1.620,1.185,0.482,0.849,0.802,���k��,1.5,��
2018/08/04,06:20,0.886,1.294,0.909,1.620,1.184,0.481,0.850,0.801,���k��,1.4,��
2018/08/04,06:30,0.886,1.292,0.906,1.619,1.181,0.481,0.849,0.801,���k��,1.7,��
2018/08/04,06:40,0.886,1.290,0.908,1.619,1.179,0.482,0.850,0.801,���k��,1.1,��
2018/08/04,06:50,0.888,1.289,0.910,1.621,1.180,0.483,0.848,0.801,�k��,1.7,��
2018/08/04,07:00,0.889,1.287,0.910,1.620,1.184,0.482,0.850,0.800,�k,3.1,��
2018/08/04,07:10,0.887,1.288,0.910,1.618,1.180,0.483,0.850,0.800,�k,3.6,��
2018/08/04,07:20,0.888,1.291,0.911,1.618,1.186,0.482,0.850,0.801,�k��,3.9,��
2018/08/04,07:30,0.888,1.291,0.908,1.620,1.183,0.483,0.850,0.800,�k��,2.0,��
2018/08/04,07:40,0.889,1.291,0.909,1.622,1.183,0.483,0.851,0.801,���쐼,0.9,��
2018/08/04,07:50,0.889,1.291,0.908,1.622,1.184,0.482,0.850,0.801,�k�k��,1.1,��
2018/08/04,08:00,0.887,1.288,0.907,1.620,1.181,0.483,0.850,0.801,�k��,2.3,��
2018/08/04,08:10,0.889,1.289,0.908,1.619,1.184,0.483,0.850,0.799,�k��,2.3,��
2018/08/04,08:20,0.887,1.290,0.907,1.618,1.184,0.483,0.848,0.798,�k��,2.3,��
2018/08/04,08:30,0.889,1.291,0.909,1.620,1.185,0.482,0.849,0.798,�k�k��,2.5,��
2018/08/04,08:40,0.889,1.290,0.908,1.617,1.183,0.483,0.851,0.799,�k�k��,2.9,��
2018/08/04,08:50,0.890,1.288,0.907,1.619,1.183,0.484,0.849,0.796,�k�k��,2.8,��
2018/08/04,09:00,0.887,1.289,0.906,1.619,1.183,0.483,0.851,0.798,�k��,2.8,��
2018/08/04,09:10,0.888,1.287,0.908,1.617,1.186,0.482,0.852,0.800,�k��,3.0,��
2018/08/04,09:20,0.887,1.284,0.909,1.626,1.183,0.483,0.853,0.800,�k��,2.5,��
2018/08/04,09:30,0.889,1.290,0.910,1.620,1.185,0.482,0.852,0.799,���k��,2.3,��
2018/08/04,09:40,0.888,1.293,0.910,1.621,1.185,0.480,0.850,0.800,���k��,2.6,��
2018/08/04,09:50,0.888,1.294,0.906,1.622,1.186,0.483,0.852,0.800,���쓌,3.2,��
2018/08/04,10:00,0.890,1.293,0.908,1.622,1.188,0.481,0.851,0.801,���쓌,3.5,��
2018/08/04,10:10,0.888,1.294,0.909,1.619,1.186,0.483,0.851,0.799,��,3.0,��
2018/08/04,10:20,0.888,1.291,0.907,1.624,1.185,0.483,0.850,0.801,��,3.2,��
2018/08/04,10:30,0.890,1.294,0.906,1.625,1.184,0.483,0.849,0.799,�쓌,3.4,��
2018/08/04,10:40,0.890,1.294,0.908,1.619,1.186,0.483,0.851,0.799,�쓌,3.4,��
2018/08/04,10:50,0.888,1.291,0.907,1.622,1.186,0.483,0.850,0.800,���쓌,2.8,��
2018/08/04,11:00,0.891,1.291,0.909,1.624,1.187,0.483,0.850,0.799,�쓌,4.7,��
2018/08/04,11:10,0.890,1.290,0.911,1.623,1.188,0.484,0.852,0.800,�쓌,3.9,��
2018/08/04,11:20,0.889,1.291,0.910,1.620,1.188,0.482,0.850,0.801,�쓌,3.1,��
2018/08/04,11:30,0.890,1.295,0.908,1.620,1.188,0.484,0.849,0.800,�쓌,3.3,��
2018/08/04,11:40,0.888,1.295,0.910,1.619,1.189,0.482,0.851,0.801,�쓌,3.5,��
2018/08/04,11:50,0.892,1.293,0.909,1.621,1.190,0.482,0.850,0.800,�쓌,3.4,��
2018/08/04,12:00,0.890,1.295,0.910,1.622,1.189,0.484,0.851,0.800,�쓌,3.5,��
2018/08/04,12:10,0.890,1.295,0.909,1.622,1.191,0.486,0.852,0.802,�쓌,3.8,��
2018/08/04,12:20,0.889,1.293,0.912,1.622,1.190,0.482,0.853,0.802,�쓌,3.5,��
2018/08/04,12:30,0.891,1.295,0.911,1.621,1.190,0.482,0.849,0.801,�쓌,3.0,��
2018/08/04,12:40,0.890,1.294,0.911,1.623,1.189,0.481,0.852,0.801,���쓌,2.3,��
2018/08/04,12:50,0.891,1.295,0.911,1.623,1.191,0.485,0.851,0.802,�쓌,2.9,��
2018/08/04,13:00,0.891,1.293,0.911,1.622,1.190,0.482,0.852,0.802,���쓌,3.6,��
2018/08/04,13:10,0.889,1.291,0.909,1.623,1.190,0.482,0.850,0.799,�쓌,3.2,��
2018/08/04,13:20,0.892,1.293,0.910,1.621,1.190,0.482,0.852,0.800,���쓌,3.2,��
2018/08/04,13:30,0.892,1.293,0.912,1.623,1.190,0.484,0.850,0.801,�쓌,3.7,��
2018/08/04,13:40,0.892,1.289,0.909,1.620,1.190,0.483,0.850,0.802,���쓌,3.8,��
2018/08/04,13:50,0.891,1.292,0.911,1.623,1.191,0.483,0.852,0.804,���쓌,3.3,��
2018/08/04,14:00,0.890,1.292,0.910,1.623,1.189,0.481,0.852,0.804,�쓌,3.9,��
2018/08/04,14:10,0.890,1.295,0.911,1.625,1.191,0.481,0.850,0.804,�쓌,3.0,��
2018/08/04,14:20,0.891,1.293,0.912,1.623,1.189,0.482,0.851,0.804,�쓌,2.5,��
2018/08/04,14:30,0.891,1.296,0.912,1.624,1.189,0.481,0.852,0.803,�쓌,3.2,��
2018/08/04,14:40,0.890,1.295,0.909,1.622,1.189,0.482,0.853,0.803,�쓌,3.1,��
2018/08/04,14:50,0.889,1.295,0.910,1.624,1.190,0.483,0.853,0.802,���쓌,3.2,��
2018/08/04,15:00,0.889,1.294,0.911,1.623,1.188,0.483,0.853,0.803,���쓌,3.3,��
2018/08/04,15:10,0.890,1.293,0.914,1.624,1.190,0.481,0.851,0.800,�쓌,3.7,��
2018/08/04,15:20,0.889,1.293,0.912,1.623,1.193,0.481,0.854,0.802,��쓌,3.4,��
2018/08/04,15:30,0.889,1.295,0.911,1.622,1.193,0.482,0.852,0.801,��,3.2,��
2018/08/04,15:40,0.890,1.294,0.911,1.623,1.191,0.484,0.854,0.800,��쐼,3.7,��
2018/08/04,15:50,0.890,1.292,0.912,1.624,1.192,0.483,0.854,0.800,��쓌,3.9,��
2018/08/04,16:00,0.892,1.293,0.912,1.625,1.191,0.483,0.853,0.804,��,3.5,��
2018/08/04,16:10,0.889,1.291,0.912,1.626,1.189,0.483,0.854,0.800,��쓌,3.6,��
2018/08/04,16:20,0.889,1.297,0.912,1.628,1.189,0.482,0.852,0.800,��쓌,4.0,��
2018/08/04,16:30,0.891,1.293,0.913,1.628,1.191,0.482,0.851,0.801,��쓌,3.8,��
2018/08/04,16:40,0.887,1.295,0.913,1.626,1.190,0.483,0.853,0.800,��쓌,3.8,��
2018/08/04,16:50,0.889,1.296,0.910,1.628,1.190,0.482,0.850,0.801,��쓌,3.9,��
2018/08/04,17:00,0.889,1.294,0.911,1.626,1.189,0.481,0.850,0.801,��쓌,3.9,��
2018/08/04,17:10,0.889,1.295,0.910,1.626,1.190,0.481,0.850,0.800,��쓌,4.0,��
2018/08/04,17:20,0.889,1.295,0.909,1.627,1.189,0.480,0.850,0.801,��쓌,5.2,��
2018/08/04,17:30,0.888,1.296,0.909,1.625,1.188,0.482,0.850,0.802,�쓌,5.4,��
2018/08/04,17:40,0.890,1.294,0.911,1.629,1.189,0.482,0.850,0.800,�쓌,5.5,��
2018/08/04,17:50,0.891,1.295,0.910,1.625,1.185,0.482,0.850,0.801,��쓌,5.0,��
2018/08/04,18:00,0.888,1.292,0.909,1.625,1.187,0.481,0.851,0.802,��쓌,5.0,��
2018/08/04,18:10,0.890,1.293,0.910,1.624,1.188,0.481,0.851,0.802,��쓌,5.1,��
2018/08/04,18:20,0.888,1.295,0.911,1.622,1.186,0.483,0.849,0.801,��쓌,5.1,��
2018/08/04,18:30,0.890,1.293,0.908,1.624,1.189,0.481,0.850,0.799,��쓌,4.6,��
2018/08/04,18:40,0.888,1.294,0.910,1.623,1.187,0.481,0.851,0.800,��쓌,4.5,��
2018/08/04,18:50,0.888,1.297,0.908,1.624,1.187,0.483,0.848,0.800,��쓌,4.5,��
2018/08/04,19:00,0.888,1.293,0.909,1.625,1.191,0.482,0.851,0.800,��쓌,5.0,��
2018/08/04,19:10,0.888,1.296,0.908,1.623,1.190,0.483,0.850,0.801,��쓌,5.7,��
2018/08/04,19:20,0.889,1.293,0.909,1.623,1.190,0.483,0.849,0.801,��쓌,5.9,��
2018/08/04,19:30,0.889,1.298,0.911,1.623,1.192,0.483,0.849,0.800,��쓌,3.8,��
2018/08/04,19:40,0.889,1.296,0.911,1.624,1.189,0.483,0.850,0.801,��쓌,3.8,��
2018/08/04,19:50,0.888,1.296,0.911,1.623,1.189,0.483,0.850,0.802,��쓌,3.8,��
2018/08/04,20:00,0.889,1.297,0.910,1.625,1.191,0.482,0.850,0.800,��쓌,4.6,��
2018/08/04,20:10,0.891,1.296,0.913,1.626,1.189,0.483,0.851,0.801,��,4.1,��
2018/08/04,20:20,0.888,1.295,0.911,1.622,1.189,0.485,0.849,0.799,��쓌,5.1,��
2018/08/04,20:30,0.891,1.295,0.909,1.626,1.187,0.485,0.850,0.800,��쓌,4.8,��
2018/08/04,20:40,0.888,1.296,0.911,1.626,1.189,0.485,0.850,0.801,��쓌,5.3,��
2018/08/04,20:50,0.889,1.295,0.910,1.624,1.190,0.482,0.849,0.801,��쓌,5.1,��
2018/08/04,21:00,0.891,1.295,0.910,1.625,1.189,0.483,0.853,0.800,��쓌,4.8,��
2018/08/04,21:10,0.891,1.294,0.911,1.626,1.190,0.483,0.851,0.801,��,3.6,��
2018/08/04,21:20,0.889,1.295,0.911,1.624,1.188,0.484,0.850,0.802,��쓌,3.0,��
2018/08/04,21:30,0.890,1.293,0.911,1.625,1.188,0.484,0.849,0.800,��쓌,2.5,��
2018/08/04,21:40,0.889,1.297,0.911,1.625,1.187,0.484,0.850,0.801,��쓌,0.9,��
2018/08/04,21:50,0.890,1.295,0.911,1.624,1.188,0.483,0.851,0.802,��쐼,0.9,��
2018/08/04,22:00,0.890,1.297,0.912,1.626,1.188,0.486,0.850,0.801,��,2.0,��
2018/08/04,22:10,0.889,1.296,0.910,1.625,1.188,0.484,0.850,0.801,��,1.4,��
2018/08/04,22:20,0.888,1.296,0.911,1.624,1.188,0.485,0.852,0.802,��,3.2,��
2018/08/04,22:30,0.890,1.297,0.912,1.625,1.189,0.484,0.850,0.803,��,3.6,��
2018/08/04,22:40,0.888,1.294,0.912,1.626,1.188,0.486,0.850,0.801,��,3.5,��
2018/08/04,22:50,0.891,1.294,0.915,1.625,1.187,0.485,0.853,0.803,��,3.8,��
2018/08/04,23:00,0.889,1.295,0.911,1.628,1.189,0.486,0.851,0.803,��쐼,1.9,��
2018/08/04,23:10,0.889,1.295,0.911,1.625,1.189,0.484,0.851,0.800,��쐼,0.6,��
2018/08/04,23:20,0.889,1.294,0.910,1.626,1.188,0.485,0.852,0.802,��쐼,0.6,��
2018/08/04,23:30,0.891,1.296,0.911,1.624,1.189,0.484,0.853,0.802,���쐼,0.6,��
2018/08/04,23:40,0.891,1.295,0.911,1.625,1.190,0.484,0.852,0.802,��,0.8,��
2018/08/04,23:50,0.890,1.295,0.913,1.626,1.188,0.485,0.851,0.801,�k��,1.2,��
